DH4SBM Weather Reports


Display with metric or nautical units.
time (UTC)temp
F
wind
direction
speed
MPH
gust
MPH
rain 1hr
in
rain 24hr
in
rain mn
in
humidity
%
barometer
mb
20260902182307 72 315 4.0 9.0 0.00 0.00 0.00 59 1021.3
20260902181307 72 315 3.0 8.0 0.00 0.00 0.00 59 1021.4
20260902180307 73 315 2.0 5.0 0.00 0.00 0.00 57 1021.3
20260902175308 74 315 1.0 3.0 0.00 0.00 0.00 57 1021.3
20260902174309 74 315 1.0 3.0 0.00 0.00 0.00 56 1021.1
20260902173308 74 315 0.0 3.0 0.00 0.00 0.00 55 1021.1
20260902172308 74 315 1.0 3.0 0.00 0.00 0.00 55 1021.2
20260902171308 74 315 2.0 4.0 0.00 0.00 0.00 55 1021.0
20260902170308 74 315 3.0 8.0 0.00 0.00 0.00 55 1021.0
20260902165309 75 315 4.0 8.0 0.00 0.00 0.00 55 1021.0
20260902164308 75 315 5.0 10.0 0.00 0.00 0.00 53 1021.0
20260902163308 75 315 5.0 9.0 0.00 0.00 0.00 54 1021.1
20260902162307 75 315 6.0 12.0 0.00 0.00 0.00 54 1021.1
20260902161307 75 315 6.0 10.0 0.00 0.00 0.00 54 1021.1
20260902160307 75 315 7.0 13.0 0.00 0.00 0.00 52 1021.1
20260902155307 76 315 7.0 14.0 0.00 0.00 0.00 52 1021.0
20260902154309 76 315 6.0 13.0 0.00 0.00 0.00 51 1021.0
20260902153308 76 315 5.0 12.0 0.00 0.00 0.00 49 1021.0
20260902152308 77 292 4.0 9.0 0.00 0.00 0.00 49 1021.1
20260902151307 77 270 4.0 9.0 0.00 0.00 0.00 49 1021.1
20260902150307 77 270 2.0 8.0 0.00 0.00 0.00 49 1021.2
20260902145309 77 292 3.0 9.0 0.00 0.00 0.00 50 1021.2
20260902144308 76 315 5.0 9.0 0.00 0.00 0.00 51 1021.3
20260902143308 76 338 5.0 11.0 0.00 0.00 0.00 53 1021.1
20260902142308 76 338 4.0 9.0 0.00 0.00 0.00 53 1021.2
20260902141308 76 315 6.0 12.0 0.00 0.00 0.00 53 1021.3
20260902140307 76 315 6.0 13.0 0.00 0.00 0.00 52 1021.4
20260902135309 76 292 8.0 15.0 0.00 0.00 0.00 52 1021.4
20260902134308 76 338 6.0 13.0 0.00 0.00 0.00 53 1021.3
20260902133308 76 338 6.0 12.0 0.00 0.00 0.00 53 1021.4
20260902132308 76 338 6.0 11.0 0.00 0.00 0.00 54 1021.4
20260902131308 77 292 7.0 12.0 0.00 0.00 0.00 52 1021.5
20260902130308 78 292 4.0 11.0 0.00 0.00 0.00 48 1021.4
20260902125308 77 292 5.0 14.0 0.00 0.00 0.00 49 1021.5
20260902124307 77 338 5.0 11.0 0.00 0.00 0.00 49 1021.5
20260902123307 77 315 4.0 9.0 0.00 0.00 0.00 50 1021.5
20260902122307 76 292 6.0 12.0 0.00 0.00 0.00 50 1021.6
20260902121307 76 338 4.0 11.0 0.00 0.00 0.00 51 1021.6
20260902120307 76 315 5.0 9.0 0.00 0.00 0.00 51 1021.7
20260902115309 76 338 5.0 10.0 0.00 0.00 0.00 50 1021.6
20260902114308 77 248 4.0 12.0 0.00 0.00 0.00 50 1021.7
20260902113308 76 315 2.0 8.0 0.00 0.00 0.00 50 1021.8
20260902112308 77 248 3.0 8.0 0.00 0.00 0.00 51 1021.9
20260902111308 75 315 3.0 8.0 0.00 0.00 0.00 53 1022.0
20260902110308 75 338 3.0 5.0 0.00 0.00 0.00 54 1022.1
20260902105308 76 225 3.0 9.0 0.00 0.00 0.00 53 1022.1
20260902104307 74 292 2.0 6.0 0.00 0.00 0.00 55 1022.2
20260902103307 74 315 2.0 6.0 0.00 0.00 0.00 56 1022.4
20260902102308 74 270 3.0 6.0 0.00 0.00 0.00 56 1022.5
20260902101307 74 248 1.0 6.0 0.00 0.00 0.00 56 1022.6
20260902100309 73 225 1.0 5.0 0.00 0.00 0.00 57 1022.6
20260902095308 73 180 2.0 5.0 0.00 0.00 0.00 57 1022.6
20260902094307 73 158 2.0 6.0 0.00 0.00 0.00 59 1022.8
20260902093307 72 202 2.0 5.0 0.00 0.00 0.00 61 1022.8
20260902092309 71 202 1.0 6.0 0.00 0.00 0.00 60 1023.0
20260902091308 69 0 0.0 0.0 0.00 0.00 0.00 67 1022.8
20260902090308 68 0 0.0 0.0 0.00 0.00 0.00 70 1022.8
20260902085308 67 0 0.0 0.0 0.00 0.00 0.00 68 1022.8
20260902084308 66 180 0.0 1.0 0.00 0.00 0.00 70 1022.5
20260902083308 65 180 0.0 3.0 0.00 0.00 0.00 71 1022.8
20260902082310 65 180 1.0 3.0 0.00 0.00 0.00 72 1022.6
20260902081308 64 158 1.0 5.0 0.00 0.00 0.00 76 1022.6
20260902080308 62 90 0.0 4.0 0.00 0.00 0.00 84 1022.3
20260902075307 61 0 0.0 0.0 0.00 0.00 0.00 86 1022.4
20260902074307 60 90 0.0 1.0 0.00 0.00 0.00 86 1022.4
20260902073307 60 90 1.0 3.0 0.00 0.00 0.00 86 1022.1
20260902072310 59 90 0.0 2.0 0.00 0.00 0.00 87 1022.1
20260902071308 58 0 0.0 0.0 0.00 0.00 0.00 88 1022.2
20260902070308 58 0 0.0 0.0 0.00 0.00 0.00 89 1022.4
20260902065307 58 0 0.0 0.0 0.00 0.00 0.00 89 1022.3
20260902064307 58 0 0.0 0.0 0.00 0.00 0.00 89 1022.1
20260902063307 57 90 0.0 1.0 0.00 0.00 0.00 90 1022.1
20260902062309 57 0 0.0 0.0 0.00 0.00 0.00 91 1022.2
20260902061308 56 90 0.0 1.0 0.00 0.00 0.00 91 1022.3
20260902060308 56 90 0.0 1.0 0.00 0.00 0.00 91 1022.2
20260902055308 55 0 0.0 0.0 0.00 0.00 0.00 91 1022.3
20260902054308 55 90 0.0 1.0 0.00 0.00 0.00 91 1022.3
20260902053308 54 90 0.0 1.0 0.00 0.00 0.00 91 1022.1
20260902052308 54 90 0.0 2.0 0.00 0.00 0.00 91 1022.0
20260902051307 54 90 0.0 2.0 0.00 0.00 0.00 91 1022.2
20260902050307 54 90 1.0 3.0 0.00 0.00 0.00 91 1022.1
20260902045307 54 0 0.0 0.0 0.00 0.00 0.00 91 1022.1
20260902044307 53 0 0.0 0.0 0.00 0.00 0.00 91 1022.1
20260902043309 53 0 0.0 0.0 0.00 0.00 0.00 91 1022.2
20260902042309 53 0 0.0 0.0 0.00 0.00 0.00 91 1022.1
20260902041308 54 0 0.0 0.0 0.00 0.00 0.00 91 1022.1
20260902040308 54 0 0.0 0.0 0.00 0.00 0.00 91 1022.0
20260902035308 54 0 0.0 0.0 0.00 0.00 0.00 91 1022.0
20260902034308 54 0 0.0 0.0 0.00 0.00 0.00 91 1022.0
20260902033308 54 0 0.0 0.0 0.00 0.00 0.00 90 1022.0
20260902032308 54 0 0.0 0.0 0.00 0.00 0.00 90 1022.1
20260902031307 54 0 0.0 0.0 0.00 0.00 0.00 90 1022.0
20260902030307 54 0 0.0 0.0 0.00 0.00 0.00 90 1022.0
20260902025307 54 0 0.0 0.0 0.00 0.00 0.00 90 1022.0
20260902024307 54 0 0.0 0.0 0.00 0.00 0.00 89 1022.1
20260902023307 55 0 0.0 0.0 0.00 0.00 0.00 89 1022.0
20260902022306 55 0 0.0 0.0 0.00 0.00 0.00 89 1022.0
20260902021306 55 0 0.0 0.0 0.00 0.00 0.00 89 1021.8
20260902020306 56 90 1.0 3.0 0.00 0.00 0.00 88 1021.9
20260902015308 56 90 2.0 3.0 0.00 0.00 0.00 88 1021.9
20260902014307 56 90 1.0 3.0 0.00 0.00 0.00 87 1021.9
20260902013307 56 90 0.0 2.0 0.00 0.00 0.00 87 1022.0
20260902013023 56 90 0.0 2.0 0.00 0.00 0.00 87 1022.0
20260902012023 56 0 0.0 0.0 0.00 0.00 0.00 87 1022.1
20260902011023 57 90 0.0 1.0 0.00 0.00 0.00 87 1022.0
20260902010023 57 90 0.0 1.0 0.00 0.00 0.00 87 1022.1
20260902005022 57 90 0.0 2.0 0.00 0.00 0.00 86 1022.1
20260902004022 57 90 0.0 1.0 0.00 0.00 0.00 86 1022.3
20260902003022 57 90 1.0 2.0 0.00 0.00 0.00 86 1022.3
20260902002022 58 90 0.0 2.0 0.00 0.00 0.00 85 1022.4
20260902001024 58 90 0.0 2.0 0.00 0.00 0.00 85 1022.5
20260902000023 58 90 0.0 2.0 0.00 0.00 0.00 85 1022.5
20260901235023 58 90 1.0 2.0 0.00 0.00 0.00 85 1022.5
20260901234023 58 90 1.0 2.0 0.00 0.00 0.00 85 1022.6
20260901233023 58 0 0.0 0.0 0.00 0.00 0.00 84 1022.5
20260901232023 59 0 0.0 0.0 0.00 0.00 0.00 83 1022.5
20260901231022 59 0 0.0 0.0 0.00 0.00 0.00 83 1022.5
20260901230022 59 0 0.0 0.0 0.00 0.00 0.00 82 1022.5
20260901225022 60 0 0.0 0.0 0.00 0.00 0.00 81 1022.6
20260901224022 60 0 0.0 0.0 0.00 0.00 0.00 80 1022.6
20260901223024 60 0 0.0 0.0 0.00 0.00 0.00 80 1022.5
20260901222023 60 0 0.0 0.0 0.00 0.00 0.00 80 1022.6
20260901221023 60 0 0.0 0.0 0.00 0.00 0.00 80 1022.5
20260901220023 60 0 0.0 0.0 0.00 0.00 0.00 80 1022.5
20260901215023 61 0 0.0 0.0 0.00 0.00 0.00 79 1022.5
20260901214023 61 0 0.0 0.0 0.00 0.00 0.00 79 1022.6
20260901213023 61 0 0.0 0.0 0.00 0.00 0.00 78 1022.6
20260901212023 61 0 0.0 0.0 0.00 0.00 0.00 78 1022.6
20260901211022 62 180 0.0 1.0 0.00 0.00 0.00 77 1022.5
20260901210022 62 180 0.0 2.0 0.00 0.00 0.00 76 1022.5
20260901205022 62 0 0.0 0.0 0.00 0.00 0.00 75 1022.5
20260901204022 63 0 0.0 0.0 0.00 0.00 0.00 74 1022.4
20260901203024 63 180 1.0 3.0 0.00 0.00 0.00 73 1022.5
20260901202023 63 180 1.0 3.0 0.00 0.00 0.00 72 1022.4
20260901201023 64 180 2.0 4.0 0.00 0.00 0.00 71 1022.4
20260901200023 64 180 1.0 2.0 0.00 0.00 0.00 70 1022.4
20260901195023 65 180 0.0 2.0 0.00 0.00 0.00 69 1022.4
20260901194023 65 180 2.0 3.0 0.00 0.00 0.00 69 1022.4
20260901193023 66 180 2.0 4.0 0.00 0.00 0.00 67 1022.2
20260901192023 67 180 2.0 4.0 0.00 0.00 0.00 64 1022.2
20260901191022 68 180 3.0 4.0 0.00 0.00 0.00 62 1022.3
20260901190022 69 202 1.0 3.0 0.00 0.00 0.00 61 1022.2
20260901185022 69 0 0.0 0.0 0.00 0.00 0.00 60 1022.1
20260901184022 69 292 1.0 2.0 0.00 0.00 0.00 60 1022.0
20260901183024 70 292 0.0 2.0 0.00 0.00 0.00 59 1021.9